(317375) = 2002 NH74 = 2004 YV22 = 2008 XR32

Discovered at Palomar on 2002-07-04 by NEAT.

Orbit

Orbit type: Main Belt

Note: WebGL enabled browser required.

epoch2024-03-31.0
epoch JD2460400.5
perihelion date2020-09-13.19951
perihelion JD2459105.69951
argument of perihelion (°)315.06008
ascending node (°)293.40291
inclination (°)3.36934
eccentricity0.0654670
perihelion distance (AU)2.6261511
Tisserand w.r.t. Jupiter3.3
ΔV w.r.t. Earth (km/sec)10.2
semimajor axis (AU)2.8101212
mean anomaly (°)270.90631
mean daily motion (°/day)0.20922630
aphelion distance (AU)2.994
period (years)4.71
P-vector [x]-0.36598152
P-vector [y]-0.83646555
P-vector [z]-0.40790060
Q-vector [x]0.92905775
Q-vector [y]-0.35380370
Q-vector [z]-0.10804928
absolute magnitude16.6
phase slope0.15
uncertainty0
referenceMPEC 2024-E73
observations used294
oppositions17
arc length (days)8380
first opposition used2001
last opposition used2024
residual rms (arc-secs)0.78
perturbers coarse indicatorM-v
perturbers precise indicator003Ek
first observation date used2001-03-26.0
last observation date used2024-03-05.0
computer nameMPCLINUX
JD of orbit computation2456731.547696
perihelion JD uncertainty (days)4.7554E-04
argument of perihelion uncertainty (°)1.2695E-04
ascending node uncertainty (°)9.2629E-05
inclination uncertainty (°)6.9591E-06
eccentricity uncertainty 5.4856E-08
perihelion distance uncertainty (AU)1.4818E-07
Minimum Orbit Intersection Distances (in AU)
for orbit epoch: 2460400.5, reference: E2024-E73
Mercury2.16022
Venus1.90163
Earth1.61333
Mars1.07085
Jupiter2.02569
Saturn6.06338
Uranus15.6384
Neptune26.8656

Observations

302 total observations over interval: 2001 03 26.37865 – 2024 03 05.198785
These data are available for download (format description).

Date (UT) J2000 RA J2000 Dec Magn Location Ref
2001 03 26.37865 13 16 32.65 -13 44 10.0 21.2 R 695 – Kitt Peak MPS 339799
2001 03 26.45830 13 16 28.93 -13 43 53.3   695 – Kitt Peak MPS 339799
2002 07 04.44911 21 23 03.37 -14 14 43.7 20.1 R 644 – Palomar Mountain/NEAT MPS 339799
2002 07 04.45965 21 23 03.11 -14 14 43.5 20.1 R 644 – Palomar Mountain/NEAT MPS 339799
2002 07 18.26961 21 14 48.66 -14 32 17.1 20.7 R 644 – Palomar Mountain/NEAT MPS 339799
2002 07 18.35487 21 14 44.77 -14 32 27.2 19.5 R 644 – Palomar Mountain/NEAT MPS 339799
2002 07 18.41829 21 14 41.90 -14 32 34.1 20.3 R 644 – Palomar Mountain/NEAT MPS 339799
2002 07 22.40094 21 11 40.41 -14 40 27.0 19.7 R 644 – Palomar Mountain/NEAT MPS 339799
2002 07 22.41146 21 11 39.91 -14 40 28.6   644 – Palomar Mountain/NEAT MPS 339799
2002 07 22.42774 21 11 39.10 -14 40 30.7 19.8 R 644 – Palomar Mountain/NEAT MPS 339799
2002 08 07.38066 20 58 04.29 -15 18 29.6 19.4 R 644 – Palomar Mountain/NEAT MPS 339799
2002 08 07.40763 20 58 02.84 -15 18 33.5 19.2 R 644 – Palomar Mountain/NEAT MPS 339799
2002 08 07.43690 20 58 01.25 -15 18 38.1 20.3 R 644 – Palomar Mountain/NEAT MPS 339799
2002 08 17.25115 20 49 43.96 -15 42 22.9 20.3 R 644 – Palomar Mountain/NEAT MPS 339799
2002 08 17.27204 20 49 42.96 -15 42 26.2 19.3 R 644 – Palomar Mountain/NEAT MPS 339799
2002 08 17.30678 20 49 41.22 -15 42 30.8 19.5 R 644 – Palomar Mountain/NEAT MPS 339799
2002 08 27.21635 20 42 30.49 -16 02 46.0 20.7 R 644 – Palomar Mountain/NEAT MPS 339799
2002 08 27.23734 20 42 29.67 -16 02 48.3 20.5 R 644 – Palomar Mountain/NEAT MPS 339799
2002 08 27.25847 20 42 28.84 -16 02 50.2 20.1 R 644 – Palomar Mountain/NEAT MPS 339799
2003 10 24.27852 02 59 47.94 +21 56 28.8 21.5 V 691 – Steward Observatory, Kitt Peak-Spacewatch MPS 339799
2003 10 24.30535 02 59 46.60 +21 56 24.0 21.5 V 691 – Steward Observatory, Kitt Peak-Spacewatch MPS 339799
2003 10 24.33262 02 59 45.29 +21 56 19.2 21.7 V 691 – Steward Observatory, Kitt Peak-Spacewatch MPS 339799
2004 12 18.42219 09 12 51.13 +15 30 43.6 20.6 R G96 – Mt. Lemmon Survey MPS 122892
2004 12 18.43404 09 12 50.96 +15 30 44.7 21.4 R G96 – Mt. Lemmon Survey MPS 122892
2004 12 18.44591 09 12 50.82 +15 30 43.5 20.5 R G96 – Mt. Lemmon Survey MPS 122892
2004 12 18.45780 09 12 50.63 +15 30 43.4 20.8 R G96 – Mt. Lemmon Survey MPS 122892
2004 12 19.45639 09 12 37.10 +15 30 36.3 21.0 R G96 – Mt. Lemmon Survey MPS 122892
2004 12 19.46660 09 12 36.90 +15 30 35.6 21.6 R G96 – Mt. Lemmon Survey MPS 122892
2004 12 19.47678 09 12 36.73 +15 30 36.2 20.6 R G96 – Mt. Lemmon Survey MPS 122892
2004 12 19.48699 09 12 36.56 +15 30 36.4 21.6 R G96 – Mt. Lemmon Survey MPS 122892
2005 01 16.35739 08 56 52.75 +16 05 04.0 20.6 V 691 – Steward Observatory, Kitt Peak-Spacewatch MPS 339799
2005 01 16.38341 08 56 51.40 +16 05 07.5 20.9 V 691 – Steward Observatory, Kitt Peak-Spacewatch MPS 339799
2005 01 16.40932 08 56 50.06 +16 05 11.1 20.9 V 691 – Steward Observatory, Kitt Peak-Spacewatch MPS 339799
2005 01 19.411337 08 54 16.061 +16 12 13.08 20.78 V 645 – Apache Point-Sloan Digital Sky Survey MPS 431030
2005 01 19.414809 08 54 15.880 +16 12 13.60 21.44   645 – Apache Point-Sloan Digital Sky Survey MPS 431030
2007 10 09.20809 22 25 54.87 -05 34 07.1 21.2 V G96 – Mt. Lemmon Survey MPS 339799
2007 10 09.21470 22 25 54.69 -05 34 08.2 21.2 V G96 – Mt. Lemmon Survey MPS 339799
2007 10 09.22133 22 25 54.55 -05 34 09.0 21.1 V G96 – Mt. Lemmon Survey MPS 339799
2007 10 09.22789 22 25 54.44 -05 34 10.2 21.1 V G96 – Mt. Lemmon Survey MPS 339799
2008 10 31.39545 04 52 19.75 +26 11 26.1   691 – Steward Observatory, Kitt Peak-Spacewatch MPS 339799
2008 10 31.41318 04 52 19.15 +26 11 25.7   691 – Steward Observatory, Kitt Peak-Spacewatch MPS 339799
2008 10 31.43091 04 52 18.54 +26 11 24.3   691 – Steward Observatory, Kitt Peak-Spacewatch MPS 339799
2008 12 02.17693 04 25 50.15 +25 14 48.5 20.7 V 691 – Steward Observatory, Kitt Peak-Spacewatch MPS 269388
2008 12 02.17940 04 25 49.99 +25 14 48.8 20.6 V 691 – Steward Observatory, Kitt Peak-Spacewatch MPS 269388
2008 12 02.19221 04 25 49.24 +25 14 46.3 20.5 V 691 – Steward Observatory, Kitt Peak-Spacewatch MPS 269388
2008 12 02.19467 04 25 49.09 +25 14 46.2 20.5 V 691 – Steward Observatory, Kitt Peak-Spacewatch MPS 269388
2008 12 02.20490 04 25 48.48 +25 14 43.8 20.2 V 691 – Steward Observatory, Kitt Peak-Spacewatch MPS 269388
2008 12 02.20737 04 25 48.35 +25 14 44.4 20.4 V 691 – Steward Observatory, Kitt Peak-Spacewatch MPS 269388
2008 12 06.18493 04 21 59.58 +25 02 56.7   691 – Steward Observatory, Kitt Peak-Spacewatch MPS 269388
2008 12 06.20263 04 21 58.56 +25 02 53.7   691 – Steward Observatory, Kitt Peak-Spacewatch MPS 269388
2008 12 06.22032 04 21 57.50 +25 02 51.1   691 – Steward Observatory, Kitt Peak-Spacewatch MPS 269388
2010 02 13.36192 10 35 48.98 +05 17 19.1 21.2 V 703 – Catalina Sky Survey MPS 339799
2010 02 13.36937 10 35 48.62 +05 17 19.4 20.0 V 703 – Catalina Sky Survey MPS 339799
2010 02 13.37691 10 35 48.26 +05 17 21.8 21.2 V 703 – Catalina Sky Survey MPS 339799
2010 02 13.38441 10 35 47.90 +05 17 25.3 20.4 V 703 – Catalina Sky Survey MPS 339799
2010 02 19.32215 10 30 54.21 +05 38 57.9 20.4 V G96 – Mt. Lemmon Survey MPS 339799
2010 02 19.32264 10 30 54.21 +05 38 58.4 20.4 V G96 – Mt. Lemmon Survey MPS 339799
2010 02 19.32699 10 30 53.96 +05 38 58.8 20.0 V G96 – Mt. Lemmon Survey MPS 339799
2010 02 19.32747 10 30 53.96 +05 38 59.2 20.2 V G96 – Mt. Lemmon Survey MPS 339800
2010 02 19.33181 10 30 53.71 +05 39 00.1 20.3 V G96 – Mt. Lemmon Survey MPS 339800
2010 02 19.33229 10 30 53.67 +05 39 00.2 20.3 V G96 – Mt. Lemmon Survey MPS 339800
2010 02 19.33667 10 30 53.46 +05 39 01.1 20.2 V G96 – Mt. Lemmon Survey MPS 339800
2010 02 19.33714 10 30 53.46 +05 39 01.5 20.5 V G96 – Mt. Lemmon Survey MPS 339800
2012 09 25.34848 00 28 20.17 +08 26 19.5 20.6 V G96 – Mt. Lemmon Survey MPS 434057
2012 09 25.35609 00 28 19.74 +08 26 17.3 19.8 V G96 – Mt. Lemmon Survey MPS 434057
2012 09 25.36186 00 28 19.52 +08 26 16.1 19.7 V G96 – Mt. Lemmon Survey MPS 434057
2012 09 25.36832 00 28 19.16 +08 26 13.9 20.5 V G96 – Mt. Lemmon Survey MPS 434057
2012 10 09.19883 00 17 09.99 +07 16 55.2 20.5 V G96 – Mt. Lemmon Survey MPS 437802
2012 10 09.20859 00 17 09.60 +07 16 51.8 20.8 V G96 – Mt. Lemmon Survey MPS 437802
2012 10 09.21833 00 17 09.09 +07 16 49.4 20.4 V G96 – Mt. Lemmon Survey MPS 437802
2012 10 09.22806 00 17 08.66 +07 16 46.4 20.3 V G96 – Mt. Lemmon Survey MPS 437802
2012 10 09.339936 00 17 03.499 +07 16 12.13 20.5 w F51 – Pan-STARRS 1, Haleakala MPS 437802
2012 10 09.368203 00 17 02.144 +07 16 03.30 20.5 w F51 – Pan-STARRS 1, Haleakala MPS 437802
2012 10 09.382508 00 17 01.430 +07 15 59.60 21.7 w F51 – Pan-STARRS 1, Haleakala MPS 437802
2014 02 24.29467 05 42 49.502 +24 02 10.38 21.8 w F51 – Pan-STARRS 1, Haleakala MPS 503851
2014 02 24.31974 05 42 49.891 +24 02 08.66 21.5 w F51 – Pan-STARRS 1, Haleakala MPS 503851
2014 02 24.33234 05 42 50.110 +24 02 08.01 21.7 w F51 – Pan-STARRS 1, Haleakala MPS 503851
2015 01 23.54855 12 33 50.805 -07 29 35.51 21.3 w F51 – Pan-STARRS 1, Haleakala MPS 569362
2015 01 23.56391 12 33 51.039 -07 29 39.09 21.2 w F51 – Pan-STARRS 1, Haleakala MPS 569362
2015 01 23.57932 12 33 51.282 -07 29 42.47 21.4 w F51 – Pan-STARRS 1, Haleakala MPS 569362
2015 01 23.59469 12 33 51.531 -07 29 46.01 21.6 w F51 – Pan-STARRS 1, Haleakala MPS 569362
2015 02 15.51872 12 34 19.645 -08 17 08.40 21.3 w F51 – Pan-STARRS 1, Haleakala MPS 582955
2015 02 15.53168 12 34 19.381 -08 17 08.59 21.2 w F51 – Pan-STARRS 1, Haleakala MPS 582955
2015 02 15.54461 12 34 19.189 -08 17 08.73 20.9 w F51 – Pan-STARRS 1, Haleakala MPS 582955
2015 02 15.55750 12 34 18.963 -08 17 09.01 20.9 w F51 – Pan-STARRS 1, Haleakala MPS 582955
2015 02 16.50243 12 34 03.864 -08 17 21.43 20.8 w F51 – Pan-STARRS 1, Haleakala MPS 582955
2015 02 16.51513 12 34 03.626 -08 17 21.49 20.8 w F51 – Pan-STARRS 1, Haleakala MPS 582955
2015 02 16.52781 12 34 03.387 -08 17 21.57 20.9 w F51 – Pan-STARRS 1, Haleakala MPS 582955
2015 02 16.54050 12 34 03.158 -08 17 21.65 20.8 w F51 – Pan-STARRS 1, Haleakala MPS 582955
2015 02 27.49667 12 29 34.894 -08 08 56.90 20.4 i F51 – Pan-STARRS 1, Haleakala MPS 585471
